Regional Weather Roundup
Issued by NWS Cleveland, OH

Home | Current Version | Previous Version | Text Only | Print | Product List | Glossary Off
Versions: 1 2 3 4 5 6 7 8 9 10 11 12 13 14 15 16 17 18 19 20 21 22 23 24 25 26 27 28 29 30 31 32 33 34 35 36 37 38 39 40 41 42 43 44 45 46 47 48 49 50

000
ASUS41 KCLE 262302
RWRCLE
OHIO REGIONAL WEATHER ROUNDUP
NATIONAL WEATHER SERVICE CLEVELAND, OH
600 PM EST WED NOV 26 2014

NOTE: "FAIR" INDICATES FEW OR NO CLOUDS BELOW 12,000 FEET WITH NO
SIGNIFICANT WEATHER AND/OR OBSTRUCTIONS TO VISIBILITY.

OHZ001>008-015>018-024>027-034-035-043-044-270000-
   NORTHWEST OHIO

CITY           SKY/WX    TMP DP  RH WIND       PRES   REMARKS
DEFIANCE       CLOUDY    31  24  75 N6        30.09F WCI  25
FINDLAY        CLOUDY    33  26  75 N9        30.06F WCI  25
TOLEDO EXPRESS CLOUDY    31  24  75 N7        30.08F WCI  24
TOLEDO EXEC    CLOUDY    33  25  72 N6        30.09F WCI  28
LIMA           CLOUDY    32  24  72 N6        30.06S WCI  26
$$

OHZ009>014-019>023-028>033-038-089-270000-
   NORTHEAST OHIO

CITY           SKY/WX    TMP DP  RH WIND       PRES   REMARKS
CLE-HOPKINS    MOCLDY    34  26  72 NW7       30.07R WCI  28
CLE-LAKEFRONT  CLOUDY    37  26  64 W3        30.05R
CUY CO. ARPT   CLOUDY    37  28  70 N7        30.04S
LORAIN-ELYRIA  CLOUDY    33  28  81 N6        30.05S WCI  28
ASHTABULA      CLOUDY    35  28  75 N3        30.03F
AKRON-CANTON   CLOUDY    36  25  64 N7        30.02R
WOOSTER        CLOUDY    33  27  78 NW3       30.03R
MANSFIELD      CLOUDY    32  26  78 NW8       30.03R WCI  25
YOUNGSTOWN     CLOUDY    35  29  78 E3        30.01S
$$

OHZ042-051>053-060>062-070>072-077>081-270000-
  SOUTHWEST OHIO

CITY           SKY/WX    TMP DP  RH WIND       PRES   REMARKS
CINC-COVINGTON CLOUDY    36  25  64 NE5       30.02F
CINC-LUNKEN    PTCLDY    35  27  72 NE3       30.05F
HAMILTON       PTCLDY    33  26  75 NE7       30.04F WCI  27
DAYTON         CLOUDY    31  24  75 N7        30.05S WCI  24
WRIGHT-PAT AFB NOT AVBL
DAYTON GENERAL PTCLDY    32  25  75 CALM      30.03S
WILMINGTON     CLOUDY    33  24  69 VRB3      30.03F
$$

OHZ036-037-039>041-045>050-054>059-063>069-073>076-082>088-270000-
  CENTRAL AND SOUTHEAST OHIO

CITY           SKY/WX    TMP DP  RH WIND       PRES   REMARKS
COLUMBUS       CLOUDY    35  25  66 NW7       30.04S WCI  29
OSU AIRPORT    CLOUDY    34  26  72 NW6       30.04S WCI  29
BOLTON FIELD   CLOUDY    34  27  75 NW3       30.05S
RICKENBACK AFB CLOUDY    35  26  67 NW6       30.04S
NEWARK         CLOUDY    36  27  69 NW5       30.03S
MARION         CLOUDY    33  27  78 N5        30.05F WCI  29
LANCASTER      CLOUDY    36  27  69 W5        30.04S
ZANESVILLE     CLOUDY    37  28  70 CALM      30.03R
NEW PHILLY     CLOUDY    38  27  64 N7        30.03S
$$


USA.gov is the U.S. government's official web portal to all federal, state and local government web resources and services.